owner,sensor,date,latitude,longitude,vertical_datum,wind_speed,wind_to_direction,wind_speed_of_gust,qcFlag 
TABS,ioos:station:wmo:42045:1,2009-09-01T00:00:00Z,26.2168,-96.4998,4.0,3.066349621,60.92689416,3.98,'11111222,11111222,11111222' 
TABS,ioos:station:wmo:42045:1,2009-09-01T00:30:00Z,26.2168,-96.4998,4.0,2.153903433,81.45568015,2.82,'11111222,11111222,11111222' 
TABS,ioos:station:wmo:42045:1,2009-09-01T01:00:00Z,26.2168,-96.4998,4.0,2.265237294,113.9628539,3.16,'11111222,11111222,11111222' 
TABS,ioos:station:wmo:42045:1,2009-09-01T01:30:00Z,26.2168,-96.4998,4.0,3.515920932,129.5763837,4.29,'11111222,11111222,11111222' 
TABS,ioos:station:wmo:42045:1,2009-09-01T02:00:00Z,26.2168,-96.4998,4.0,4.25403338,130.8061427,5.05,'11111222,11111222,11111222' 
TABS,ioos:station:wmo:42045:1,2009-09-01T02:30:00Z,26.2168,-96.4998,4.0,3.971662121,123.8104423,4.69,'11111222,11111222,11111222' 
TABS,ioos:station:wmo:42045:1,2009-09-01T03:00:00Z,26.2168,-96.4998,4.0,3.79241348,116.2951495,5.4,'11111222,11111222,11111222' 
TABS,ioos:station:wmo:42045:1,2009-09-01T03:30:00Z,26.2168,-96.4998,4.0,3.430131193,90.50153623,4.43,'11111222,11111222,11111222' 
TABS,ioos:station:wmo:42045:1,2009-09-01T04:00:00Z,26.2168,-96.4998,4.0,3.750733262,102.6286133,4.68,'11111222,11111222,11111222' 
TABS,ioos:station:wmo:42045:1,2009-09-01T04:30:00Z,26.2168,-96.4998,4.0,3.651684543,110.5196901,4.64,'11111222,11111222,11111222' 
TABS,ioos:station:wmo:42045:1,2009-09-01T05:00:00Z,26.2168,-96.4998,4.0,3.533511002,113.5183276,4.39,'11111222,11111222,11111222' 
TABS,ioos:station:wmo:42045:1,2009-09-01T05:30:00Z,26.2168,-96.4998,4.0,3.554110297,126.418841,4.34,'11111222,11111222,11111222' 
TABS,ioos:station:wmo:42045:1,2009-09-01T06:00:00Z,26.2168,-96.4998,4.0,3.328978822,130.0042292,4.18,'11111222,11111222,11111222' 
TABS,ioos:station:wmo:42045:1,2009-09-01T06:30:00Z,26.2168,-96.4998,4.0,3.409310781,133.5741627,4.17,'11111222,11111222,11111222' 
TABS,ioos:station:wmo:42045:1,2009-09-01T07:00:00Z,26.2168,-96.4998,4.0,3.445243097,133.2361205,4.14,'11111222,11111222,11111222' 
TABS,ioos:station:wmo:42045:1,2009-09-01T07:30:00Z,26.2168,-96.4998,4.0,2.89663598,131.7817011,3.72,'11111222,11111222,11111222' 
TABS,ioos:station:wmo:42045:1,2009-09-01T08:00:00Z,26.2168,-96.4998,4.0,2.641968963,156.3460524,3.12,'11111222,11111222,11111222' 
TABS,ioos:station:wmo:42045:1,2009-09-01T08:30:00Z,26.2168,-96.4998,4.0,2.3689027,134.4872341,2.95,'11111222,11111222,11111222' 
TABS,ioos:station:wmo:42045:1,2009-09-01T09:00:00Z,26.2168,-96.4998,4.0,2.036663939,135.7960374,2.54,'11111222,11111222,11111222' 
TABS,ioos:station:wmo:42045:1,2009-09-01T09:30:00Z,26.2168,-96.4998,4.0,1.401855913,137.8915785,1.99,'11111222,11111222,11111222' 
TABS,ioos:station:wmo:42045:1,2009-09-01T10:00:00Z,26.2168,-96.4998,4.0,1.572577502,123.5893592,2.0,'11111222,11111222,11111222' 
TABS,ioos:station:wmo:42045:1,2009-09-01T10:30:00Z,26.2168,-96.4998,4.0,0.931450482,104.9318032,1.42,'11111222,11111222,11111222' 
TABS,ioos:station:wmo:42045:1,2009-09-01T11:00:00Z,26.2168,-96.4998,4.0,1.896364944,137.1372215,2.27,'11111222,11111222,11111222' 
TABS,ioos:station:wmo:42045:1,2009-09-01T11:30:00Z,26.2168,-96.4998,4.0,1.895890292,133.2905056,2.32,'11111222,11111222,11111222' 
TABS,ioos:station:wmo:42045:1,2009-09-01T12:00:00Z,26.2168,-96.4998,4.0,1.560416611,105.9962158,2.0,'11111222,11111222,11111222' 
TABS,ioos:station:wmo:42045:1,2009-09-01T12:30:00Z,26.2168,-96.4998,4.0,4.148795006,40.60098924,5.03,'11111222,11111222,11111222' 
TABS,ioos:station:wmo:42045:1,2009-09-01T13:00:00Z,26.2168,-96.4998,4.0,3.691205765,24.82907807,5.07,'11111222,11111222,11111222' 
TABS,ioos:station:wmo:42045:1,2009-09-01T13:30:00Z,26.2168,-96.4998,4.0,3.007607022,47.290289,3.64,'11111222,11111222,11111222' 
TABS,ioos:station:wmo:42045:1,2009-09-01T14:00:00Z,26.2168,-96.4998,4.0,2.894011057,36.71121673,3.55,'11111222,11111222,11111222' 
TABS,ioos:station:wmo:42045:1,2009-09-01T14:30:00Z,26.2168,-96.4998,4.0,3.035951251,40.45769925,3.79,'11111222,11111222,11111222' 
TABS,ioos:station:wmo:42045:1,2009-09-01T15:00:00Z,26.2168,-96.4998,4.0,3.012640038,32.52925175,3.52,'11111222,11111222,11111222' 
TABS,ioos:station:wmo:42045:1,2009-09-01T15:30:00Z,26.2168,-96.4998,4.0,3.519801131,40.15958314,4.14,'11111222,11111222,11111222' 
TABS,ioos:station:wmo:42045:1,2009-09-01T16:00:00Z,26.2168,-96.4998,4.0,3.329159053,30.10749731,4.03,'11111222,11111222,11111222' 
TABS,ioos:station:wmo:42045:1,2009-09-01T16:30:00Z,26.2168,-96.4998,4.0,2.978942765,31.12840023,3.57,'11111222,11111222,11111222' 
TABS,ioos:station:wmo:42045:1,2009-09-01T17:00:00Z,26.2168,-96.4998,4.0,3.175059055,51.64986908,3.68,'11111222,11111222,11111222' 
TABS,ioos:station:wmo:42045:1,2009-09-01T17:30:00Z,26.2168,-96.4998,4.0,3.480703952,49.07699864,4.21,'11111222,11111222,11111222' 
TABS,ioos:station:wmo:42045:1,2009-09-01T18:00:00Z,26.2168,-96.4998,4.0,3.948670662,50.34272758,4.56,'11111222,11111222,11111222' 
TABS,ioos:station:wmo:42045:1,2009-09-01T18:30:00Z,26.2168,-96.4998,4.0,3.759813825,58.04273051,4.47,'11111222,11111222,11111222' 
TABS,ioos:station:wmo:42045:1,2009-09-01T19:00:00Z,26.2168,-96.4998,4.0,3.768076432,52.76483217,4.83,'11111222,11111222,11111222' 
TABS,ioos:station:wmo:42045:1,2009-09-01T19:30:00Z,26.2168,-96.4998,4.0,4.694731089,60.10339214,5.86,'11111222,11111222,11111222' 
TABS,ioos:station:wmo:42045:1,2009-09-01T20:00:00Z,26.2168,-96.4998,4.0,4.225872691,65.98208067,5.11,'11111222,11111222,11111222' 
TABS,ioos:station:wmo:42045:1,2009-09-01T20:30:00Z,26.2168,-96.4998,4.0,4.187242529,54.52561085,4.88,'11111222,11111222,11111222' 
TABS,ioos:station:wmo:42045:1,2009-09-01T21:00:00Z,26.2168,-96.4998,4.0,3.534119409,61.98437713,4.54,'11111222,11111222,11111222' 
TABS,ioos:station:wmo:42045:1,2009-09-01T21:30:00Z,26.2168,-96.4998,4.0,4.065464303,66.20886085,4.94,'11111222,11111222,11111222' 
TABS,ioos:station:wmo:42045:1,2009-09-01T22:00:00Z,26.2168,-96.4998,4.0,4.803800579,55.94570834,6.04,'11111222,11111222,11111222' 
TABS,ioos:station:wmo:42045:1,2009-09-01T22:30:00Z,26.2168,-96.4998,4.0,4.887504476,68.26352714,5.99,'11111222,11111222,11111222' 
TABS,ioos:station:wmo:42045:1,2009-09-01T23:00:00Z,26.2168,-96.4998,4.0,4.083331973,60.67246817,4.84,'11111222,11111222,11111222' 
TABS,ioos:station:wmo:42045:1,2009-09-01T23:30:00Z,26.2168,-96.4998,4.0,3.766058948,62.48201861,4.95,'11111222,11111222,11111222' 
TABS,ioos:station:wmo:42045:1,2009-09-02T00:00:00Z,26.2168,-96.4998,4.0,4.07117919,65.0082504,4.88,'11111222,11111222,11111222' 
TABS,ioos:station:wmo:42045:1,2009-09-02T00:30:00Z,26.2168,-96.4998,4.0,3.961022595,68.68171666,4.98,'11111222,11111222,11111222' 
TABS,ioos:station:wmo:42045:1,2009-09-02T01:00:00Z,26.2168,-96.4998,4.0,3.795629065,68.03003423,4.73,'11111222,11111222,11111222' 
TABS,ioos:station:wmo:42045:1,2009-09-02T01:30:00Z,26.2168,-96.4998,4.0,4.193566501,70.78695219,5.23,'11111222,11111222,11111222' 
TABS,ioos:station:wmo:42045:1,2009-09-02T02:00:00Z,26.2168,-96.4998,4.0,3.790118732,84.09345178,4.59,'11111222,11111222,11111222' 
TABS,ioos:station:wmo:42045:1,2009-09-02T02:30:00Z,26.2168,-96.4998,4.0,4.165297108,87.10970392,5.95,'11111222,11111222,11111222' 
TABS,ioos:station:wmo:42045:1,2009-09-02T03:00:00Z,26.2168,-96.4998,4.0,3.97327321,76.90771663,4.86,'11111222,11111222,11111222' 
TABS,ioos:station:wmo:42045:1,2009-09-02T03:30:00Z,26.2168,-96.4998,4.0,3.991102605,79.16829876,5.0,'11111222,11111222,11111222' 
TABS,ioos:station:wmo:42045:1,2009-09-02T04:00:00Z,26.2168,-96.4998,4.0,4.031004838,91.27976362,4.88,'11111222,11111222,11111222' 
TABS,ioos:station:wmo:42045:1,2009-09-02T04:30:00Z,26.2168,-96.4998,4.0,3.850519445,102.4485013,4.96,'11111222,11111222,11111222' 
TABS,ioos:station:wmo:42045:1,2009-09-02T05:00:00Z,26.2168,-96.4998,4.0,3.824160038,97.66435175,4.93,'11111222,11111222,11111222' 
TABS,ioos:station:wmo:42045:1,2009-09-02T05:30:00Z,26.2168,-96.4998,4.0,3.541073284,103.722686,4.38,'11111222,11111222,11111222' 
TABS,ioos:station:wmo:42045:1,2009-09-02T06:00:00Z,26.2168,-96.4998,4.0,3.202577087,115.5252402,3.87,'11111222,11111222,11111222' 
TABS,ioos:station:wmo:42045:1,2009-09-02T06:30:00Z,26.2168,-96.4998,4.0,2.968922363,113.6297434,3.86,'11111222,11111222,11111222' 
TABS,ioos:station:wmo:42045:1,2009-09-02T07:00:00Z,26.2168,-96.4998,4.0,3.128657859,109.9991267,3.7,'11111222,11111222,11111222' 
TABS,ioos:station:wmo:42045:1,2009-09-02T07:30:00Z,26.2168,-96.4998,4.0,3.07902582,101.2373389,3.69,'11111222,11111222,11111222' 
TABS,ioos:station:wmo:42045:1,2009-09-02T08:00:00Z,26.2168,-96.4998,4.0,2.949203282,106.3460686,3.69,'11111222,11111222,11111222' 
TABS,ioos:station:wmo:42045:1,2009-09-02T08:30:00Z,26.2168,-96.4998,4.0,3.168659022,108.7784102,3.91,'11111222,11111222,11111222' 
TABS,ioos:station:wmo:42045:1,2009-09-02T09:00:00Z,26.2168,-96.4998,4.0,3.327281172,116.4113898,4.06,'11111222,11111222,11111222' 
TABS,ioos:station:wmo:42045:1,2009-09-02T09:30:00Z,26.2168,-96.4998,4.0,4.50131092,96.76229517,5.27,'11111222,11111222,11111222' 
TABS,ioos:station:wmo:42045:1,2009-09-02T10:00:00Z,26.2168,-96.4998,4.0,4.753325152,98.59076881,5.71,'11111222,11111222,11111222' 
TABS,ioos:station:wmo:42045:1,2009-09-02T10:30:00Z,26.2168,-96.4998,4.0,4.518683437,93.55301875,5.41,'11111222,11111222,11111222' 
TABS,ioos:station:wmo:42045:1,2009-09-02T11:00:00Z,26.2168,-96.4998,4.0,4.082401254,69.34502301,5.06,'11111222,11111222,11111222' 
TABS,ioos:station:wmo:42045:1,2009-09-02T11:30:00Z,26.2168,-96.4998,4.0,3.18100613,91.44151684,3.84,'11111222,11111222,11111222' 
TABS,ioos:station:wmo:42045:1,2009-09-02T12:00:00Z,26.2168,-96.4998,4.0,2.53938969,104.3649698,4.26,'11111222,11111222,11111222' 
TABS,ioos:station:wmo:42045:1,2009-09-02T12:30:00Z,26.2168,-96.4998,4.0,1.03247276,135.7851385,3.43,'11111222,11111222,11111222' 
TABS,ioos:station:wmo:42045:1,2009-09-02T13:00:00Z,26.2168,-96.4998,4.0,2.410020747,179.7624706,3.85,'11111222,11111222,11111222' 
TABS,ioos:station:wmo:42045:1,2009-09-02T13:30:00Z,26.2168,-96.4998,4.0,2.232241026,177.4326191,3.29,'11111222,11111222,11111222' 
TABS,ioos:station:wmo:42045:1,2009-09-02T14:00:00Z,26.2168,-96.4998,4.0,1.214948559,98.9975433,1.65,'11111222,11111222,11111222' 
TABS,ioos:station:wmo:42045:1,2009-09-02T14:30:00Z,26.2168,-96.4998,4.0,6.340378538,56.71060318,8.1,'11111222,11111222,11111222' 
TABS,ioos:station:wmo:42045:1,2009-09-02T15:00:00Z,26.2168,-96.4998,4.0,4.78740013,68.68715526,5.76,'11111222,11111222,11111222' 
TABS,ioos:station:wmo:42045:1,2009-09-02T15:30:00Z,26.2168,-96.4998,4.0,4.329769047,72.52718314,5.31,'11111222,11111222,11111222' 
TABS,ioos:station:wmo:42045:1,2009-09-02T16:00:00Z,26.2168,-96.4998,4.0,3.049065431,82.08209456,3.91,'11111222,11111222,11111222' 
TABS,ioos:station:wmo:42045:1,2009-09-02T16:30:00Z,26.2168,-96.4998,4.0,2.718841665,60.22862882,3.63,'11111222,11111222,11111222' 
TABS,ioos:station:wmo:42045:1,2009-09-02T17:00:00Z,26.2168,-96.4998,4.0,2.168155898,36.18250901,2.91,'11111222,11111222,11111222' 
TABS,ioos:station:wmo:42045:1,2009-09-02T17:30:00Z,26.2168,-96.4998,4.0,1.996121239,13.61829936,2.76,'11111222,11111222,11111222' 
TABS,ioos:station:wmo:42045:1,2009-09-02T18:00:00Z,26.2168,-96.4998,4.0,2.279692962,354.7143552,3.04,'11111222,11111222,11111222' 
TABS,ioos:station:wmo:42045:1,2009-09-02T18:30:00Z,26.2168,-96.4998,4.0,2.384365744,8.197839217,3.22,'11111222,11111222,11111222' 
TABS,ioos:station:wmo:42045:1,2009-09-02T19:00:00Z,26.2168,-96.4998,4.0,2.792346683,24.54557617,3.25,'11111222,11111222,11111222' 
TABS,ioos:station:wmo:42045:1,2009-09-02T19:30:00Z,26.2168,-96.4998,4.0,2.555190795,35.12031683,3.31,'11111222,11111222,11111222' 
TABS,ioos:station:wmo:42045:1,2009-09-02T20:00:00Z,26.2168,-96.4998,4.0,2.8115654,67.63058084,3.54,'11111222,11111222,11111222' 
TABS,ioos:station:wmo:42045:1,2009-09-02T20:30:00Z,26.2168,-96.4998,4.0,2.704902956,69.88983929,3.48,'11111222,11111222,11111222' 
TABS,ioos:station:wmo:42045:1,2009-09-02T21:00:00Z,26.2168,-96.4998,4.0,2.995797056,57.26442936,3.94,'11111222,11111222,11111222' 
TABS,ioos:station:wmo:42045:1,2009-09-02T21:30:00Z,26.2168,-96.4998,4.0,3.194698734,66.96588803,4.71,'11111222,11111222,11111222' 
TABS,ioos:station:wmo:42045:1,2009-09-02T22:00:00Z,26.2168,-96.4998,4.0,3.002215848,69.93499452,3.68,'11111222,11111222,11111222' 
TABS,ioos:station:wmo:42045:1,2009-09-02T22:30:00Z,26.2168,-96.4998,4.0,3.937321425,70.87439778,4.85,'11111222,11111222,11111222' 
TABS,ioos:station:wmo:42045:1,2009-09-02T23:00:00Z,26.2168,-96.4998,4.0,3.771272995,83.91106517,4.84,'11111222,11111222,11111222' 
TABS,ioos:station:wmo:42045:1,2009-09-02T23:30:00Z,26.2168,-96.4998,4.0,4.110596064,89.02383518,5.12,'11111222,11111222,11111222' 
TABS,ioos:station:wmo:42045:1,2009-09-03T00:00:00Z,26.2168,-96.4998,4.0,3.89236432,85.43153777,5.02,'11111222,11111222,11111222' 
TABS,ioos:station:wmo:42045:1,2009-09-03T00:30:00Z,26.2168,-96.4998,4.0,4.014423994,85.14112752,5.66,'11111222,11111222,11111222' 
TABS,ioos:station:wmo:42045:1,2009-09-03T01:00:00Z,26.2168,-96.4998,4.0,4.020472609,85.86320486,5.63,'11111222,11111222,11111222' 
TABS,ioos:station:wmo:42045:1,2009-09-03T01:30:00Z,26.2168,-96.4998,4.0,4.354595274,87.36715037,5.52,'11111222,11111222,11111222' 
TABS,ioos:station:wmo:42045:1,2009-09-03T02:00:00Z,26.2168,-96.4998,4.0,4.840960648,95.33413858,5.77,'11111222,11111222,11111222' 
TABS,ioos:station:wmo:42045:1,2009-09-03T02:30:00Z,26.2168,-96.4998,4.0,4.585935019,102.3394793,5.61,'11111222,11111222,11111222' 
TABS,ioos:station:wmo:42045:1,2009-09-03T03:00:00Z,26.2168,-96.4998,4.0,4.728266067,107.4772948,5.73,'11111222,11111222,11111222' 
TABS,ioos:station:wmo:42045:1,2009-09-03T03:30:00Z,26.2168,-96.4998,4.0,3.855308029,113.7063304,4.97,'11111222,11111222,11111222' 
TABS,ioos:station:wmo:42045:1,2009-09-03T04:00:00Z,26.2168,-96.4998,4.0,4.234678264,112.9324677,5.17,'11111222,11111222,11111222' 
TABS,ioos:station:wmo:42045:1,2009-09-03T04:30:00Z,26.2168,-96.4998,4.0,3.675391136,120.4026631,4.73,'11111222,11111222,11111222' 
TABS,ioos:station:wmo:42045:1,2009-09-03T05:00:00Z,26.2168,-96.4998,4.0,3.787268145,128.3529898,4.95,'11111222,11111222,11111222' 
TABS,ioos:station:wmo:42045:1,2009-09-03T05:30:00Z,26.2168,-96.4998,4.0,3.494681674,123.3266327,4.27,'11111222,11111222,11111222' 
TABS,ioos:station:wmo:42045:1,2009-09-03T06:00:00Z,26.2168,-96.4998,4.0,3.835948383,145.7302422,4.46,'11111222,11111222,11111222' 
TABS,ioos:station:wmo:42045:1,2009-09-03T06:30:00Z,26.2168,-96.4998,4.0,3.555840266,146.9358903,4.32,'11111222,11111222,11111222' 
TABS,ioos:station:wmo:42045:1,2009-09-03T07:00:00Z,26.2168,-96.4998,4.0,3.0379763,147.7749966,3.74,'11111222,11111222,11111222' 
TABS,ioos:station:wmo:42045:1,2009-09-03T07:30:00Z,26.2168,-96.4998,4.0,2.533140344,128.5894907,3.03,'11111222,11111222,11111222' 
TABS,ioos:station:wmo:42045:1,2009-09-03T08:00:00Z,26.2168,-96.4998,4.0,3.100983715,124.3566081,3.68,'11111222,11111222,11111222' 
TABS,ioos:station:wmo:42045:1,2009-09-03T08:30:00Z,26.2168,-96.4998,4.0,2.920565014,134.3066977,3.67,'11111222,11111222,11111222' 
TABS,ioos:station:wmo:42045:1,2009-09-03T09:00:00Z,26.2168,-96.4998,4.0,2.89131458,111.5073921,3.5,'11111222,11111222,11111222' 
TABS,ioos:station:wmo:42045:1,2009-09-03T09:30:00Z,26.2168,-96.4998,4.0,3.059444394,113.2973187,3.66,'11111222,11111222,11111222' 
TABS,ioos:station:wmo:42045:1,2009-09-03T10:00:00Z,26.2168,-96.4998,4.0,2.818102198,107.3422763,3.91,'11111222,11111222,11111222' 
TABS,ioos:station:wmo:42045:1,2009-09-03T10:30:00Z,26.2168,-96.4998,4.0,2.413565827,109.861791,3.1,'11111222,11111222,11111222' 
TABS,ioos:station:wmo:42045:1,2009-09-03T11:00:00Z,26.2168,-96.4998,4.0,2.551234995,138.8143816,3.59,'11111222,11111222,11111222' 
TABS,ioos:station:wmo:42045:1,2009-09-03T11:30:00Z,26.2168,-96.4998,4.0,2.155017401,146.1627429,2.83,'11111222,11111222,11111222' 
TABS,ioos:station:wmo:42045:1,2009-09-03T12:00:00Z,26.2168,-96.4998,4.0,2.208438362,141.9887891,2.97,'11111222,11111222,11111222' 
TABS,ioos:station:wmo:42045:1,2009-09-03T12:30:00Z,26.2168,-96.4998,4.0,1.868180933,143.9278244,2.45,'11111222,11111222,11111222' 
TABS,ioos:station:wmo:42045:1,2009-09-03T13:00:00Z,26.2168,-96.4998,4.0,1.925201288,137.5264267,2.57,'11111222,11111222,11111222' 
TABS,ioos:station:wmo:42045:1,2009-09-03T13:30:00Z,26.2168,-96.4998,4.0,1.176605286,148.201372,1.95,'11111222,11111222,11111222' 
TABS,ioos:station:wmo:42045:1,2009-09-03T14:00:00Z,26.2168,-96.4998,4.0,1.554670383,166.2321522,2.17,'11111222,11111222,11111222' 
TABS,ioos:station:wmo:42045:1,2009-09-03T14:30:00Z,26.2168,-96.4998,4.0,1.659216683,190.7683298,2.33,'11111222,11111222,11111222' 
TABS,ioos:station:wmo:42045:1,2009-09-03T15:00:00Z,26.2168,-96.4998,4.0,1.594521872,191.9443597,2.07,'11111222,11111222,11111222' 
TABS,ioos:station:wmo:42045:1,2009-09-03T15:30:00Z,26.2168,-96.4998,4.0,1.445441109,190.7659408,1.97,'11111222,11111222,11111222' 
TABS,ioos:station:wmo:42045:1,2009-09-03T16:00:00Z,26.2168,-96.4998,4.0,0.565685425,188.1302938,1.19,'11111222,11111222,11111222' 
TABS,ioos:station:wmo:42045:1,2009-09-03T16:30:00Z,26.2168,-96.4998,4.0,0.745452882,96.9347536,1.42,'11111222,11111222,11111222' 
TABS,ioos:station:wmo:42045:1,2009-09-03T17:00:00Z,26.2168,-96.4998,4.0,0.992471662,94.04489703,1.62,'11111222,11111222,11111222' 
TABS,ioos:station:wmo:42045:1,2009-09-03T17:30:00Z,26.2168,-96.4998,4.0,0.18973666,161.5653047,0.64,'11111222,11111222,11111222' 
TABS,ioos:station:wmo:42045:1,2009-09-03T18:00:00Z,26.2168,-96.4998,4.0,0.525547334,158.8062035,1.28,'11111222,11111222,11111222' 
TABS,ioos:station:wmo:42045:1,2009-09-03T18:30:00Z,26.2168,-96.4998,4.0,0.381182371,175.4862326,0.99,'11111222,11111222,11111222' 
TABS,ioos:station:wmo:42045:1,2009-09-03T19:00:00Z,26.2168,-96.4998,4.0,0.51623638,171.0853043,1.19,'11111222,11111222,11111222' 
TABS,ioos:station:wmo:42045:1,2009-09-03T19:30:00Z,26.2168,-96.4998,4.0,0.191049732,83.99058718,1.0,'11111222,11111222,11111222' 
TABS,ioos:station:wmo:42045:1,2009-09-03T20:00:00Z,26.2168,-96.4998,4.0,1.170469991,123.1473392,1.95,'11111222,11111222,11111222' 
TABS,ioos:station:wmo:42045:1,2009-09-03T20:30:00Z,26.2168,-96.4998,4.0,1.871069213,98.60687431,3.52,'11111222,11111222,11111222' 
TABS,ioos:station:wmo:42045:1,2009-09-03T21:00:00Z,26.2168,-96.4998,4.0,1.99,90.00042092,2.89,'11111222,11111222,11111222' 
TABS,ioos:station:wmo:42045:1,2009-09-03T21:30:00Z,26.2168,-96.4998,4.0,2.055431828,100.6542986,2.99,'11111222,11111222,11111222' 
TABS,ioos:station:wmo:42045:1,2009-09-03T22:00:00Z,26.2168,-96.4998,4.0,2.998082721,85.79142908,3.82,'11111222,11111222,11111222' 
TABS,ioos:station:wmo:42045:1,2009-09-03T22:30:00Z,26.2168,-96.4998,4.0,3.578407467,97.22471972,4.67,'11111222,11111222,11111222' 
TABS,ioos:station:wmo:42045:1,2009-09-03T23:00:00Z,26.2168,-96.4998,4.0,3.904676683,101.223995,4.79,'11111222,11111222,11111222' 
TABS,ioos:station:wmo:42045:1,2009-09-03T23:30:00Z,26.2168,-96.4998,4.0,4.069705149,100.6200514,5.35,'11111222,11111222,11111222' 
TABS,ioos:station:wmo:42045:1,2009-09-04T00:00:00Z,26.2168,-96.4998,4.0,4.473533279,98.87315045,5.46,'11111222,11111222,11111222' 
TABS,ioos:station:wmo:42045:1,2009-09-04T00:30:00Z,26.2168,-96.4998,4.0,5.05775642,93.17395981,6.35,'11111222,11111222,11111222' 
TABS,ioos:station:wmo:42045:1,2009-09-04T01:00:00Z,26.2168,-96.4998,4.0,4.790845437,88.9231696,5.82,'11111222,11111222,11111222' 
TABS,ioos:station:wmo:42045:1,2009-09-04T01:30:00Z,26.2168,-96.4998,4.0,4.779215417,80.9708807,5.72,'11111222,11111222,11111222' 
TABS,ioos:station:wmo:42045:1,2009-09-04T02:00:00Z,26.2168,-96.4998,4.0,5.510326669,90.62430528,6.45,'11111222,11111222,11111222' 
TABS,ioos:station:wmo:42045:1,2009-09-04T02:30:00Z,26.2168,-96.4998,4.0,5.274590031,87.60911848,6.9,'11111222,11111222,11111222' 
TABS,ioos:station:wmo:42045:1,2009-09-04T03:00:00Z,26.2168,-96.4998,4.0,5.338136379,99.81563089,8.32,'11111222,11111222,11111222' 
TABS,ioos:station:wmo:42045:1,2009-09-04T03:30:00Z,26.2168,-96.4998,4.0,3.935123886,102.623955,4.83,'11111222,11111222,11111222' 
TABS,ioos:station:wmo:42045:1,2009-09-04T04:00:00Z,26.2168,-96.4998,4.0,3.674465948,104.33918,4.75,'11111222,11111222,11111222' 
TABS,ioos:station:wmo:42045:1,2009-09-04T04:30:00Z,26.2168,-96.4998,4.0,3.895664257,93.09050252,4.79,'11111222,11111222,11111222' 
TABS,ioos:station:wmo:42045:1,2009-09-04T05:00:00Z,26.2168,-96.4998,4.0,3.332536571,87.76394741,4.52,'11111222,11111222,11111222' 
TABS,ioos:station:wmo:42045:1,2009-09-04T05:30:00Z,26.2168,-96.4998,4.0,2.823065709,114.931429,3.65,'11111222,11111222,11111222' 
TABS,ioos:station:wmo:42045:1,2009-09-04T06:00:00Z,26.2168,-96.4998,4.0,2.64620483,124.5311659,3.47,'11111222,11111222,11111222' 
TABS,ioos:station:wmo:42045:1,2009-09-04T06:30:00Z,26.2168,-96.4998,4.0,3.35477272,117.7111701,4.36,'11111222,11111222,11111222' 
TABS,ioos:station:wmo:42045:1,2009-09-04T07:00:00Z,26.2168,-96.4998,4.0,2.978808487,132.9597663,3.65,'11111222,11111222,11111222' 
TABS,ioos:station:wmo:42045:1,2009-09-04T07:30:00Z,26.2168,-96.4998,4.0,2.710737907,154.6641474,3.86,'11111222,11111222,11111222' 
TABS,ioos:station:wmo:42045:1,2009-09-04T08:00:00Z,26.2168,-96.4998,4.0,3.703241823,164.0123477,4.78,'11111222,11111222,11111222' 
TABS,ioos:station:wmo:42045:1,2009-09-04T08:30:00Z,26.2168,-96.4998,4.0,3.710121292,164.2033408,4.78,'11111222,11111222,11111222' 
TABS,ioos:station:wmo:42045:1,2009-09-04T09:00:00Z,26.2168,-96.4998,4.0,3.824264635,168.6903044,5.05,'11111222,11111222,11111222' 
TABS,ioos:station:wmo:42045:1,2009-09-04T09:30:00Z,26.2168,-96.4998,4.0,3.417162566,150.3593834,4.24,'11111222,11111222,11111222' 
TABS,ioos:station:wmo:42045:1,2009-09-04T10:00:00Z,26.2168,-96.4998,4.0,3.313502678,171.8456732,4.32,'11111222,11111222,11111222' 
TABS,ioos:station:wmo:42045:1,2009-09-04T10:30:00Z,26.2168,-96.4998,4.0,2.524004754,162.7139357,3.32,'11111222,11111222,11111222' 
TABS,ioos:station:wmo:42045:1,2009-09-04T11:00:00Z,26.2168,-96.4998,4.0,1.931320792,148.1206882,2.95,'11111222,11111222,11111222' 
TABS,ioos:station:wmo:42045:1,2009-09-04T11:30:00Z,26.2168,-96.4998,4.0,0.530094331,88.91865742,1.37,'11111222,11111222,11111222' 
TABS,ioos:station:wmo:42045:1,2009-09-04T12:00:00Z,26.2168,-96.4998,4.0,0.604152299,61.31349859,1.33,'11111222,11111222,11111222' 
TABS,ioos:station:wmo:42045:1,2009-09-04T12:30:00Z,26.2168,-96.4998,4.0,1.889576672,95.77134364,3.08,'11111222,11111222,11111222' 
TABS,ioos:station:wmo:42045:1,2009-09-04T13:00:00Z,26.2168,-96.4998,4.0,1.989798985,98.08978241,2.67,'11111222,11111222,11111222' 
TABS,ioos:station:wmo:42045:1,2009-09-04T13:30:00Z,26.2168,-96.4998,4.0,1.76638048,97.80939512,2.49,'11111222,11111222,11111222' 
TABS,ioos:station:wmo:42045:1,2009-09-04T14:00:00Z,26.2168,-96.4998,4.0,1.97,90.00042092,2.54,'11111222,11111222,11111222' 
TABS,ioos:station:wmo:42045:1,2009-09-04T14:30:00Z,26.2168,-96.4998,4.0,1.550516043,88.52130988,2.08,'11111222,11111222,11111222' 
TABS,ioos:station:wmo:42045:1,2009-09-04T15:00:00Z,26.2168,-96.4998,4.0,1.762554964,96.84317833,2.34,'11111222,11111222,11111222' 
TABS,ioos:station:wmo:42045:1,2009-09-04T15:30:00Z,26.2168,-96.4998,4.0,2.233786024,86.66325018,2.89,'11111222,11111222,11111222' 
TABS,ioos:station:wmo:42045:1,2009-09-04T16:00:00Z,26.2168,-96.4998,4.0,2.49194703,97.61024028,3.56,'11111222,11111222,11111222' 
TABS,ioos:station:wmo:42045:1,2009-09-04T16:30:00Z,26.2168,-96.4998,4.0,2.929846412,75.77364845,3.71,'11111222,11111222,11111222' 
TABS,ioos:station:wmo:42045:1,2009-09-04T17:00:00Z,26.2168,-96.4998,4.0,3.152459357,84.90389108,4.06,'11111222,11111222,11111222' 
TABS,ioos:station:wmo:42045:1,2009-09-04T17:30:00Z,26.2168,-96.4998,4.0,3.338637447,85.87729091,4.34,'11111222,11111222,11111222' 
TABS,ioos:station:wmo:42045:1,2009-09-04T18:00:00Z,26.2168,-96.4998,4.0,3.361547263,83.50882263,4.48,'11111222,11111222,11111222' 
TABS,ioos:station:wmo:42045:1,2009-09-04T18:30:00Z,26.2168,-96.4998,4.0,3.720497279,83.98252645,5.02,'11111222,11111222,11111222' 